Flag for Norway Weather past 2 weeks in Kirkenes, Norway

Now
33 °F

Chilly.


Feels Like: 25 °F
Forecast: 21 / 30 °F
Wind: 10 mph from South

Location: Kirkenes Lufthavn

Current Time: Mar 3, 2015 at 4:36:05 AM

Latest Report: Mar 3, 2015 at 3:00 AM


Visibility: N/A

Pressure: 29.50 "Hg

Humidity: 84%

Dew point: 29 °F

Location of KirkenesLocation

Historic Weather in Kirkenes — Graph

°F

Kirkenes temperature yesterday

Maximum temperature yesterday: 35 °F (at 7:00 PM)
Minimum temperature yesterday: 30 °F (at 5:00 AM)
Average temperature yesterday: 33 °F

Past Weeks' High & Low Weather Summary

 TemperatureHumidityPressure
High35 °F (Mar 2, 7:00 PM)97% (Feb 20, 8:00 PM)30.14 "Hg (Feb 20, 8:00 PM)
Low12 °F (Feb 23, 10:00 PM)64% (Mar 2, 10:00 AM)28.94 "Hg (Feb 20, 2:00 PM)
Average28 °F82%29.42 "Hg
* Reported Feb 16 3:00 AM — Mar 3 3:00 AM, Kirkenes, Weather by CustomWeather, © 2015

Note: Actual official high and low records may vary slightly from our data, if they occured in-between our weather recording intervals... More about our weather records

Advertising

Kirkenes weather history for previous 24 hours

 ConditionsComfort  
Time TempWeatherWind HumidityBarometerVisibility
3:00 AM
Tue, Mar 3
33 °FChilly.10 mph84%29.50 "HgN/A
2:00 AM34 °FChilly.8 mph82%29.50 "HgN/A
1:00 AM34 °FChilly.12 mph80%29.47 "HgN/A
12:00 AM34 °FChilly.7 mph81%29.47 "HgN/A
11:00 PM
Mon, Mar 2
35 °FChilly.9 mph77%29.47 "HgN/A
9:00 PM34 °FChilly.8 mph76%29.44 "HgN/A
8:00 PM35 °FChilly.9 mph74%29.44 "HgN/A
7:00 PM35 °FChilly.10 mph72%29.41 "HgN/A
6:00 PM35 °FChilly.12 mph74%29.38 "HgN/A
5:00 PM35 °FChilly.10 mph73%29.38 "HgN/A
4:00 PM35 °FChilly.10 mph70%29.38 "HgN/A
3:00 PM35 °FChilly.10 mph70%29.38 "HgN/A
2:00 PM35 °FChilly.12 mph67%29.38 "HgN/A
1:00 PM35 °FChilly.13 mph68%29.35 "HgN/A
12:00 PM34 °FChilly.13 mph66%29.35 "HgN/A
11:00 AM34 °FChilly.14 mph65%29.35 "HgN/A
10:00 AM34 °FChilly.12 mph64%29.35 "HgN/A
9:00 AM33 °FChilly.14 mph66%29.35 "HgN/A
8:00 AM32 °FChilly.13 mph71%29.35 "HgN/A
7:00 AM31 °FChilly.9 mph74%29.35 "HgN/A
6:00 AM30 °FChilly.9 mph74%29.35 "HgN/A
5:00 AM30 °FChilly.10 mph74%29.35 "HgN/A
4:00 AM31 °FChilly.12 mph74%29.32 "HgN/A
Weather by CustomWeather, © 2015

See weather overviewHow to use our weather pages